Location: Newark
(3.1475°N, 101.6933°E)
Time: 16:29:58
(UTC+00:00)

Envisat - Pass Details

Date: 22 September 2019
Orbit: 764 x 766 km, 98.1° (Epoch: 22 October)

Event Time Altitude Azimuth Distance (km) Brightness Sun altitude
Rises 12:56:32 0° 206° (SSW) 3,228 6.5 -27.6°
Reaches altitude 10° 13:00:19 10° 235° (SW) 2,300 6.1 -28.5°
Maximum altitude 13:02:18 12° 258° (WSW) 2,141 6.1 -29.0°
Drops below altitude 10° 13:04:18 10° 282° (WNW) 2,297 6.4 -29.5°
Sets 13:08:06 0° 311° (NW) 3,220 6.9 -30.4°
